VK2XSE Weather Reports


Display with metric or nautical units.
time (UTC)temp
F
wind
direction
speed
MPH
gust
MPH
rain 1hr
in
rain 24hr
in
rain mn
in
humidity
%
barometer
mb
20260507201516 47 270 1.0 3.0 0.00 0.00 0.00 83 1024.7
20260507200516 47 315 1.0 3.0 0.00 0.00 0.00 83 1024.6
20260507195516 47 315 1.0 4.0 0.00 0.00 0.00 83 1024.6
20260507194517 47 293 1.0 2.0 0.00 0.00 0.00 83 1024.7
20260507193516 47 293 1.0 3.0 0.00 0.00 0.00 83 1024.7
20260507192516 47 293 1.0 3.0 0.00 0.00 0.00 83 1024.6
20260507191516 46 315 1.0 3.0 0.00 0.00 0.00 82 1024.5
20260507190518 46 315 1.0 3.0 0.00 0.00 0.00 82 1024.5
20260507185518 46 293 1.0 2.0 0.00 0.00 0.00 82 1024.6
20260507184518 46 293 1.0 2.0 0.00 0.00 0.00 82 1024.6
20260507183518 46 315 1.0 2.0 0.00 0.00 0.00 81 1024.6
20260507182518 46 0.0 1.0 0.00 0.00 0.00 81 1024.5
20260507181518 46 270 1.0 3.0 0.00 0.00 0.00 80 1024.5
20260507180518 46 270 3.0 6.0 0.00 0.00 0.00 80 1024.5
20260507175518 46 270 3.0 7.0 0.00 0.00 0.00 80 1024.4
20260507174518 45 270 3.0 7.0 0.00 0.00 0.00 80 1024.4
20260507173518 45 270 3.0 7.0 0.00 0.00 0.00 80 1024.4
20260507172518 45 270 3.0 6.0 0.00 0.00 0.00 81 1024.4
20260507171518 44 270 3.0 6.0 0.00 0.00 0.00 81 1024.5
20260507170518 44 270 3.0 6.0 0.00 0.00 0.00 81 1024.5
20260507165518 44 270 2.0 4.0 0.00 0.00 0.00 81 1024.5
20260507164518 44 270 3.0 6.0 0.00 0.00 0.00 80 1024.6
20260507163518 44 270 3.0 4.0 0.00 0.00 0.00 80 1024.5
20260507162518 44 270 2.0 4.0 0.00 0.00 0.00 80 1024.7
20260507161518 44 270 2.0 4.0 0.00 0.00 0.00 80 1024.7
20260507160518 44 270 2.0 4.0 0.00 0.00 0.00 79 1024.7
20260507155518 44 270 1.0 2.0 0.00 0.00 0.00 79 1024.9
20260507154518 45 270 2.0 4.0 0.00 0.00 0.00 78 1024.9
20260507153518 45 270 2.0 4.0 0.00 0.00 0.00 77 1025.0
20260507152518 45 270 2.0 3.0 0.00 0.00 0.00 77 1025.0
20260507151518 45 270 1.0 2.0 0.00 0.00 0.00 76 1025.0
20260507150518 46 270 2.0 4.0 0.00 0.00 0.00 75 1025.0
20260507145518 46 270 3.0 6.0 0.00 0.00 0.00 74 1025.1
20260507144518 46 270 2.0 4.0 0.00 0.00 0.00 75 1025.1
20260507143518 46 270 3.0 6.0 0.00 0.00 0.00 76 1025.1
20260507142518 46 270 2.0 3.0 0.00 0.00 0.00 77 1025.2
20260507141518 45 270 1.0 3.0 0.00 0.00 0.00 78 1025.3
20260507140518 45 270 1.0 3.0 0.00 0.00 0.00 78 1025.4
20260507135517 45 293 1.0 2.0 0.00 0.00 0.00 79 1025.4
20260507134517 44 270 1.0 2.0 0.00 0.00 0.00 79 1025.4
20260507133517 44 270 1.0 2.0 0.00 0.00 0.00 79 1025.4
20260507132517 44 270 1.0 2.0 0.00 0.00 0.00 78 1025.3
20260507131517 44 270 1.0 3.0 0.00 0.00 0.00 78 1025.2
20260507130517 44 293 1.0 2.0 0.00 0.00 0.00 78 1025.4
20260507125517 44 293 1.0 2.0 0.00 0.00 0.00 78 1025.3
20260507124517 44 293 1.0 2.0 0.00 0.00 0.00 78 1025.3
20260507123517 44 293 1.0 2.0 0.00 0.00 0.00 77 1025.3
20260507122517 44 270 1.0 2.0 0.00 0.00 0.00 77 1025.4
20260507121517 44 270 1.0 2.0 0.00 0.00 0.00 76 1025.5
20260507120517 44 270 1.0 2.0 0.00 0.00 0.00 75 1025.6
20260507115517 45 0.0 1.0 0.00 0.00 0.00 75 1025.6
20260507114517 45 0.0 1.0 0.00 0.00 0.00 74 1025.5
20260507113517 45 270 2.0 3.0 0.00 0.00 0.00 73 1025.5
20260507112517 45 270 1.0 3.0 0.00 0.00 0.00 73 1025.3
20260507111517 46 270 1.0 1.0 0.00 0.00 0.00 73 1025.4
20260507110517 46 270 1.0 2.0 0.00 0.00 0.00 71 1025.3
20260507105517 46 270 1.0 3.0 0.00 0.00 0.00 70 1025.3
20260507104517 47 270 3.0 4.0 0.00 0.00 0.00 68 1025.2
20260507103517 47 270 2.0 3.0 0.00 0.00 0.00 68 1025.2
20260507102517 47 270 2.0 3.0 0.00 0.00 0.00 67 1025.2
20260507101517 48 270 2.0 4.0 0.00 0.00 0.00 66 1025.3
20260507100517 48 270 3.0 5.0 0.00 0.00 0.00 66 1025.5
20260507095517 48 270 3.0 4.0 0.00 0.00 0.00 65 1025.5
20260507094517 48 270 3.0 4.0 0.00 0.00 0.00 64 1025.5
20260507093517 48 270 2.0 3.0 0.00 0.00 0.00 65 1025.5
20260507092517 49 270 2.0 3.0 0.00 0.00 0.00 63 1025.5
20260507091517 49 270 2.0 4.0 0.00 0.00 0.00 62 1025.4
20260507090517 50 270 3.0 6.0 0.00 0.00 0.00 60 1025.1
20260507085517 50 270 2.0 3.0 0.00 0.00 0.00 60 1025.0
20260507084517 50 270 3.0 6.0 0.00 0.00 0.00 59 1024.9
20260507083517 50 270 2.0 4.0 0.00 0.00 0.00 58 1024.8
20260507082516 51 270 3.0 6.0 0.00 0.00 0.00 57 1024.7
20260507081516 51 270 3.0 7.0 0.00 0.00 0.00 57 1024.7
20260507080516 51 270 2.0 4.0 0.00 0.00 0.00 56 1024.6
20260507075516 52 248 2.0 4.0 0.00 0.00 0.00 56 1024.4
20260507074516 52 248 3.0 6.0 0.00 0.00 0.00 54 1024.4
20260507073516 53 248 3.0 8.0 0.00 0.00 0.00 54 1024.5
20260507072517 53 248 3.0 10.0 0.00 0.00 0.00 53 1024.5
20260507071516 53 248 3.0 7.0 0.00 0.00 0.00 52 1024.2
20260507070518 54 248 4.0 8.0 0.00 0.00 0.00 52 1024.0
20260507065518 54 248 4.0 9.0 0.00 0.00 0.00 51 1023.9
20260507064518 54 248 4.0 7.0 0.00 0.00 0.00 51 1023.8
20260507063518 54 248 4.0 8.0 0.00 0.00 0.00 51 1023.7
20260507062518 55 225 4.0 7.0 0.00 0.00 0.00 50 1023.8
20260507061518 55 248 5.0 12.0 0.00 0.00 0.00 48 1023.8
20260507060518 55 248 3.0 7.0 0.00 0.00 0.00 48 1023.8
20260507055518 55 248 4.0 8.0 0.00 0.00 0.00 48 1023.8
20260507054518 56 248 5.0 12.0 0.00 0.00 0.00 47 1023.6
20260507053518 56 248 3.0 8.0 0.00 0.00 0.00 47 1023.6
20260507052516 56 248 5.0 11.0 0.00 0.00 0.00 46 1023.6
20260507051518 56 225 5.0 11.0 0.00 0.00 0.00 45 1023.7
20260507050518 56 225 5.0 20.0 0.00 0.00 0.00 44 1023.7
20260507045518 56 225 4.0 6.0 0.00 0.00 0.00 45 1023.5
20260507044518 56 225 4.0 10.0 0.00 0.00 0.00 44 1023.5
20260507043518 56 225 6.0 11.0 0.00 0.00 0.00 44 1023.5
20260507042518 56 225 5.0 13.0 0.00 0.00 0.00 44 1023.5
20260507041518 56 225 4.0 10.0 0.00 0.00 0.00 46 1023.5
20260507040518 56 225 5.0 9.0 0.00 0.00 0.00 45 1023.5
20260507035518 56 225 4.0 9.0 0.00 0.00 0.00 46 1023.5
20260507034518 56 248 4.0 9.0 0.00 0.00 0.00 47 1023.6
20260507033518 56 248 5.0 10.0 0.00 0.00 0.00 45 1023.6
20260507032518 56 225 4.0 7.0 0.00 0.00 0.00 47 1023.6
20260507031518 56 248 4.0 9.0 0.00 0.00 0.00 48 1023.5
20260507030518 56 248 6.0 14.0 0.00 0.00 0.00 47 1023.6
20260507025518 55 225 4.0 9.0 0.00 0.00 0.00 48 1023.6
20260507024518 55 225 5.0 20.0 0.00 0.00 0.00 49 1023.6
20260507023518 55 225 5.0 10.0 0.00 0.00 0.00 49 1023.8
20260507022518 55 225 4.0 9.0 0.00 0.00 0.00 50 1023.7
20260507021518 55 225 4.0 6.0 0.00 0.00 0.00 50 1023.9
20260507020518 54 248 6.0 11.0 0.00 0.00 0.00 50 1024.0
20260507015518 54 248 5.0 9.0 0.00 0.00 0.00 53 1024.0
20260507014518 54 225 5.0 8.0 0.00 0.00 0.00 53 1024.1
20260507013517 54 225 4.0 7.0 0.00 0.00 0.00 55 1024.1
20260507012517 53 248 6.0 14.0 0.00 0.00 0.00 56 1024.2
20260507011517 53 248 6.0 15.0 0.00 0.00 0.00 54 1024.2
20260507010517 53 225 5.0 13.0 0.00 0.00 0.00 57 1024.3
20260507005518 52 248 6.0 14.0 0.00 0.00 0.00 58 1024.1
20260507004517 52 248 3.0 8.0 0.00 0.00 0.00 61 1024.2
20260507003517 51 248 8.0 14.0 0.00 0.00 0.00 61 1024.1
20260507002517 51 225 4.0 8.0 0.00 0.00 0.00 63 1024.2
20260507001517 50 248 6.0 11.0 0.00 0.00 0.00 63 1024.2
20260507000517 50 225 4.0 9.0 0.00 0.00 0.00 64 1023.9
20260506235517 50 248 5.0 9.0 0.00 0.00 0.00 65 1023.9
20260506234517 49 248 4.0 11.0 0.00 0.00 0.00 66 1023.9
20260506233517 49 248 5.0 11.0 0.00 0.00 0.00 67 1023.8
20260506232517 49 0 5.0 13.0 0.00 0.00 0.00 67 1023.8
20260506231517 48 248 5.0 10.0 0.00 0.00 0.00 68 1023.7
20260506230517 48 248 5.0 11.0 0.00 0.00 0.00 70 1023.7
20260506225517 47 248 4.0 11.0 0.00 0.00 0.00 71 1023.5
20260506224517 46 248 4.0 8.0 0.00 0.00 0.00 74 1023.4
20260506223517 46 248 5.0 13.0 0.00 0.00 0.00 75 1023.3
20260506222517 46 248 4.0 10.0 0.00 0.00 0.00 76 1023.1
20260506221517 45 248 3.0 7.0 0.00 0.00 0.00 78 1023.0
20260506220517 45 270 4.0 13.0 0.00 0.00 0.00 79 1022.7
20260506215517 45 270 5.0 14.0 0.00 0.00 0.00 80 1022.5
20260506214517 44 270 4.0 10.0 0.00 0.00 0.00 81 1022.3
20260506213517 44 248 4.0 13.0 0.00 0.00 0.00 83 1022.2
20260506212517 44 270 3.0 8.0 0.00 0.00 0.00 83 1022.1
20260506211517 44 0 3.0 9.0 0.00 0.00 0.00 83 1021.9
20260506210517 44 270 2.0 4.0 0.00 0.00 0.00 81 1021.9
20260506205517 44 0 2.0 4.0 0.00 0.00 0.00 79 1021.8
20260506204517 44 0 3.0 6.0 0.00 0.00 0.00 78 1021.6
20260506203517 45 0 2.0 4.0 0.00 0.00 0.00 76 1021.5
20260506202517 45 270 3.0 7.0 0.00 0.00 0.00 74 1021.4